Location: Izdebno
(52.6670°N, 16.2170°E)
Time: 12:59:27
(UTC+02:00)

Vanguard 2 - Pass Details

Date: 08 February 2023
Orbit: 553 x 2927 km, 32.9° (Epoch: 26 March)

Event Time Altitude Azimuth Distance (km) Brightness Sun altitude
Rises 01:08:46 0° 264° (W) 6,070 - -50.7°
Reaches altitude 10° 01:13:21 10° 253° (WSW) 5,330 - -50.4°
Maximum altitude 01:25:53 28° 204° (SSW) 4,412 - -49.5°
Drops below altitude 10° 01:39:06 10° 155° (SSE) 5,606 - -48.5°
Exits shadow 01:43:00 - 147° (SSE) 6,228 12.0 -48.1°
Sets 01:44:09 0° 145° (SE) 6,424 12.1 -48.0°
